Meteo Giornale » Osservazioni meteo Tunisia » Sfax El-Maou
ore: 19:00 - Osservazioni Meteo Sfax El-Maou
Lat. 34° 43' N Lon. 10° 41' E Alt. 21 metri s.l.m.
32 °C
Sereno
Temp. 24 Ore
30 °C
36 °C
Nord-Est
9.3 Km/h
Dew point 22 °C
Umidità 55 %
Visibilità 10 Km
Il sole sorge alle ore 05:50
Il sole tramonta alle ore 18:44
| Data e Ora | Cielo e Fenomeni | T °C | DP °C | Um. % | Pres. hPa | Vis. km | Vento km/h | |
|---|---|---|---|---|---|---|---|---|
| Oggi h: 19:00 | Sereno | 32 | 22 | 55 | 1017 | 10 | NE 9.3 | |
| Oggi h: 18:00 | Sereno | 34 | 21 | 46 | 1017 | 10 | E/NE 11.1 | |
| Oggi h: 17:00 | Sereno | 34 | 23 | 52 | 1016 | 10 | E 13 | |
| Oggi h: 16:00 | Sereno | 34 | 23 | 52 | 1016 | 10 | E 14.8 | |
| Oggi h: 15:00 | Sereno | 34 | 24 | 56 | 1016 | 10 | E 16.7 | |
| Oggi h: 14:00 | Sereno | 35 | 24 | 53 | 1017 | 10 | E 18.5 | |
| Oggi h: 13:00 | Sereno | 35 | 24 | 53 | 1017 | 10 | E 18.5 | |
| Oggi h: 12:00 | Sereno | 35 | 23 | 49 | 1018 | 10 | E 16.7 | |
| Oggi h: 11:00 | Sereno | 36 | 19 | 36 | 1018 | 10 | N 11.1 | |
| Oggi h: 10:00 | Sereno | 34 | 19 | 41 | 1018 | 10 | N/NE 13 | |
| Oggi h: 09:00 | Sereno | 33 | 21 | 49 | 1017 | 10 | N/NE 14.8 | |
| Oggi h: 08:00 | Nuvoloso | 32 | 23 | 59 | 1017 | 10 | NE 9.3 | |
| Oggi h: 07:00 | Nuvoloso | 30 | 25 | 74 | 1017 | 10 | NE 9.3 | |
| Oggi h: 06:00 | Nuvoloso | 30 | 25 | 74 | 1016 | 10 | N/NE 7.4 | |
| Oggi h: 05:00 | Nuvoloso | 30 | 26 | 79 | 1016 | 10 | N 5.5 | |
| Oggi h: 04:00 | Nuvoloso | 31 | 27 | 79 | 1017 | 10 | N/NE 9.3 | |
| Oggi h: 03:00 | Nuvoloso | 31 | 27 | 79 | 1016 | 10 | N 7.4 | |
| Oggi h: 02:00 | Nuvoloso | 31 | 27 | 79 | 1015 | 10 | E/SE 9.3 | |
| Oggi h: 01:00 | Nuvoloso | 31 | 27 | 79 | 1016 | 10 | E/NE 11.1 | |
| Oggi h: 00:00 | Nuvoloso | 32 | 26 | 70 | 1016 | 10 | NE 9.3 | |
| Ieri h: 23:00 | Nuvoloso | 32 | 25 | 66 | 1017 | 10 | N/NE 11.1 | |
| Ieri h: 22:00 | Nuvoloso | 33 | 25 | 62 | 1017 | 10 | NE 14.8 | |
| Ieri h: 21:00 | Nuvoloso | 33 | 25 | 62 | 1016 | 10 | NE 13 | |



